This is the latest recevied weather packets stored in our database for station/object 9W2CHF-3. If no packets are shown the sender has not sent any weather packets the latest 10 day(s).
| Time | Temp. | Humidity | Pressure | Rain* | Wind** | Luminosity | Snow |
|---|---|---|---|---|---|---|---|
| 1777934820 | 27.78° C | 100% | 1010.2 hPa | - | - | - | - |
| 1777933620 | 27.22° C | 100% | 1010.2 hPa | - | - | - | - |
| 1777932420 | 27.22° C | 100% | 1009.7 hPa | - | - | - | - |
| 1777931220 | 27.22° C | 100% | 1009.6 hPa | - | - | - | - |
| 1777930020 | 27.78° C | 100% | 1009.7 hPa | - | - | - | - |
| 1777928819 | 27.78° C | 100% | 1009.7 hPa | - | - | - | - |
| 1777927619 | 28.33° C | 100% | 1009.4 hPa | - | - | - | - |
| 1777926419 | 27.22° C | 100% | 1009.6 hPa | - | - | - | - |
| 1777925218 | 28.33° C | 100% | 1009.6 hPa | - | - | - | - |
| 1777924018 | 27.78° C | 100% | 1009.6 hPa | - | - | - | - |
| 1777922818 | 27.78° C | 100% | 1009.8 hPa | - | - | - | - |
| 1777921618 | 27.78° C | 100% | 1010 hPa | - | - | - | - |
| 1777920418 | 28.33° C | 100% | 1010.1 hPa | - | - | - | - |
| 1777919220 | 28.89° C | 100% | 1010.3 hPa | - | - | - | - |
| 1777918020 | 28.89° C | 98% | 1010.7 hPa | - | - | - | - |
| 1777916820 | 28.33° C | 100% | 1010.9 hPa | - | - | - | - |
| 1777915620 | 28.89° C | 97% | 1011.3 hPa | - | - | - | - |
| 1777914420 | 28.89° C | 97% | 1011.5 hPa | - | - | - | - |
| 1777913220 | 28.89° C | 99% | 1011.6 hPa | - | - | - | - |
| 1777912020 | 28.89° C | 98% | 1011.7 hPa | - | - | - | - |
| 1777910820 | 30° C | 90% | 1011.7 hPa | - | - | - | - |
| 1777909620 | 31.11° C | 84% | 1011.6 hPa | - | - | - | - |
| 1777908420 | 31.11° C | 82% | 1011.5 hPa | - | - | - | - |
| 1777907220 | 32.78° C | 77% | 1011.4 hPa | - | - | - | - |
| 1777906020 | 30° C | 92% | 1011.2 hPa | - | - | - | - |
* Rain since midnight (hover to see other rain measurements)
** Current wind speed in m/s (hover to see current wind gust speed)